Hourly Data Report for June 29, 2015

All times are specified in Local Standard Time (LST). Add 1 hour to adjust for Daylight Saving Time where and when it is observed.

KELOWNA UBCO
BRITISH COLUMBIA

49°56'26.700" N
119°24'00.760" W
456.00 m
1123996
71644
VKU

Download Data

Hourly Data (June 2015)
Hourly Data Report for June 29, 2015
TIME Temp Definition
°C
Dew Point Definition
°C
Rel Hum Definition
%
Wind Dir Definition
10's deg

Wind Spd Definition
km/h
Visibility Definition
km
Stn Press Definition
kPa
Hmdx Definition


Wind Chill Definition


Weather Definition


00:00 26.2 10.6 38       95.89 28   LegendNANA
01:00 25.7 11.3 41       95.89 28   LegendNANA
02:00 25.7 12.0 43       96.10 28   LegendNANA
03:00 24.2 14.4 54       96.03 28   LegendNANA
04:00 23.9 14.6 56       96.00 28   LegendNANA
05:00 22.9 15.4 63       96.04 27   LegendNANA
06:00 23.7 14.9 58       96.08 28   LegendNANA
07:00 21.0 16.4 75       96.24 26   LegendNANA
08:00 22.2 16.0 68       96.31 27   LegendNANA
09:00 20.9 17.1 79       96.52 26   LegendNANA
10:00 20.0 17.2 84       96.46 25   LegendNANA
11:00 20.7 18.4 86       96.37 27   LegendNANA
12:00 23.6 17.4 68       96.31 29   LegendNANA
13:00 25.2 16.0 57       96.26 30   LegendNANA
14:00 26.8 15.9 51       96.19 31   LegendNANA
15:00 24.1 17.0 64       96.15 29   LegendNANA
16:00 23.9 17.5 67       96.18 30   LegendNANA
17:00 24.5 17.8 66       96.15 30   LegendNANA
18:00 25.1 16.7 59       96.09 30   LegendNANA
19:00 24.4 16.9 63       96.12 30   LegendNANA
20:00 23.3 17.2 68       96.24 29   LegendNANA
21:00 20.4 13.5 65       96.36     LegendNANA
22:00 20.1 13.9 67       96.42     LegendNANA
23:00 18.7 14.7 78       96.41     LegendNANA

Notes on Data Quality.

Legend

  • E = Estimated
  • M = Missing
  • NA = Not Available
Date modified: